Regional Weather Roundup
Issued by NWS

Home | Current Version | Previous Version | Graphics & Text | Print | Product List | Glossary On
Versions: 1 2 3 4 5 6 7 8 9 10 11 12 13 14 15 16 17 18 19 20 21 22 23 24 25 26 27 28 29 30 31 32 33 34 35 36 37 38 39 40 41 42 43 44 45 46 47 48 49 50
033
ASUS43 KOAX 271010
RWRNE

WEATHER ROUNDUP FOR NEBRASKA
NATIONAL WEATHER SERVICE OMAHA NE
500 AM CDT THU APR 27 2017

NOTES: SATELLITE DATA IS BEING USED TO AUGMENT CLOUD COVER ABOVE
       12000 FEET.
       "FAIR" INDICATES FEW OR NO CLOUDS BELOW 12,000 FEET WITH NO
       SIGNIFICANT WEATHER AND/OR OBSTRUCTIONS TO VISIBILITY.

  * THESE STATIONS DO NOT REPORT WEATHER SUCH AS RAIN...SNOW OR FOG.

NEZ001>004-019>022-054>056-271100-
NEBRASKA PANHANDLE

CITY           SKY/WX    TMP DP  RH WIND       PRES   REMARKS
SCOTTSBLUFF    CLOUDY    38  35  89 E8        29.59F WCI  32
ALLIANCE       PTCLDY    29  27  92 E7        29.60F WCI  22
CHADRON        CLOUDY    30  27  88 NE6       29.63F WCI  24
KIMBALL        CLOUDY    39  38  97 S7        29.59F WCI  34
SIDNEY         MOCLDY    38  36  92 SW8       29.60F WCI  32
$$

NEZ057>060-069>072-079>082-271100-
SOUTHWEST NEBRASKA

CITY           SKY/WX    TMP DP  RH WIND       PRES   REMARKS
NORTH PLATTE   CLEAR     32  30  92 E3        29.67F
IMPERIAL       CLEAR     34  29  82 SE8       29.64F WCI  27
LEXINGTON      CLEAR     28  26  90 N5        29.68F WCI  23
MCCOOK         PTCLDY    31  28  89 NE3       29.67F
OGALLALA       PTCLDY    36  32  84 E6        29.64F WCI  32
$$

NEZ005>010-023>029-035>040-094-271100-
NORTH CENTRAL NEBRASKA

CITY           SKY/WX    TMP DP  RH WIND       PRES   REMARKS
VALENTINE      CLEAR     23  18  81 W5        29.68F WCI  17
AINSWORTH      CLEAR     28  27  95 W6        29.68S WCI  21
BROKEN BOW     CLEAR     29  25  85 N3        29.68S
O`NEILL        CLEAR     29  26  88 W9        29.68F WCI  21
ORD            CLEAR     29  25  85 W7        29.67S WCI  22
THEDFORD       CLEAR     26  25  93 CALM      29.68S
$$

NEZ041-046>049-061>064-073>077-083>087-271100-
SOUTH CENTRAL NEBRASKA

CITY           SKY/WX    TMP DP  RH WIND       PRES   REMARKS
GRAND ISLAND   CLEAR     28  26  92 W8        29.69S WCI  20
AURORA         CLEAR     28  26  91 NW7       29.68S WCI  21
HASTINGS       CLEAR     29  25  85 W6        29.70F WCI  23
HEBRON         CLEAR     29  26  88 W6        29.70S WCI  23
HOLDREGE       CLEAR     29  26  90 CALM      29.68F
KEARNEY *      CLEAR     30  25  80 NW5       29.69F WCI  25
YORK           PTCLDY    28  27  93 NW9       29.68F WCI  20
$$

NEZ011>018-030>034-042>045-271100-
NORTHEAST NEBRASKA

CITY           SKY/WX    TMP DP  RH WIND       PRES   REMARKS
NORFOLK        CLEAR     31  27  85 NW9       29.65F WCI  23
ALBION         CLEAR     28  24  86 W5        29.67S WCI  23
BLAIR          CLOUDY    36  29  77 NW12      29.65S WCI  28
FREMONT        CLOUDY    37  31  78 NW6       29.67R WCI  33
TEKAMAH        PTCLDY    34  26  72 NW12      29.67R WCI  25
WAYNE          CLOUDY    33  31  94 NW6       29.65F WCI  27
$$

NEZ050>053-065>068-078-088>093-271100-
SOUTHEAST NEBRASKA

CITY           SKY/WX    TMP DP  RH WIND       PRES   REMARKS
LINCOLN        CLEAR     35  29  78 NW6       29.68S WCI  30
OMAHA EPPLEY   CLOUDY    38  27  64 NW16      29.66R WCI  29
BEATRICE       CLEAR     33  30  86 W9        29.67F WCI  26
FALLS CITY     CLOUDY    39  32  76 W6        29.67R WCI  35
NEBRASKA CITY  CLOUDY    40  30  66 NW7       29.66S
PLATTSMOUTH    CLOUDY    39  29  67 NW10G16   29.65S WCI  32
$$

NEZ044-045-051>053-067-271100-
OMAHA AREA

CITY           SKY/WX    TMP DP  RH WIND       PRES   REMARKS
OMAHA EPPLEY   CLOUDY    38  27  64 NW16      29.66R WCI  29
BLAIR          CLOUDY    36  29  77 NW12      29.65S WCI  28
FREMONT        CLOUDY    37  31  78 NW6       29.67R WCI  33
MILLARD        CLOUDY    41  33  73 NW7       29.66S
OFFUTT AFB     CLOUDY    39  30  70 NW9       29.65R WCI  33
PLATTSMOUTH    CLOUDY    39  29  67 NW10G16   29.65S WCI  32
WAHOO          CLOUDY    39  30  71 NW13G20   29.65F WCI  31
$$




USA.gov is the U.S. government's official web portal to all federal, state and local government web resources and services.